COSMOS 1852

Satellite information

Favourite Embed

Satellite Type and Status

PAYLOADIN ORBIT

Key statistics

Satellite COSMOS 1852 at a glance.

Uptime

14062

Days in orbit

Revolutions

≈ 12.4

Per day

Orbit

LEO

Low Earth Orbit

Inclination

74.0

Latest

Satellite identification and parameters

Extended collection of information and parameters for COSMOS 1852.

Object identification

Identified? True

Debris? False

Object name: COSMOS 1852

International designator: 1987-051A

Object number (NORAD): 18113

Object ID (CCSDS): 18113

Country: COMMONWEALTH OF INDEPENDENT STATES (CIS)

Current information (Y/N): Y

RCS size: MEDIUM

Orbital parameters

Period: 115.674 minutes

Inclination: 74.0053 deg

SMA: 7864.109 km

Apoapsis: 1499.775 km

Periapsis: 1472.173 km

RAAN: 7.8746 deg

Eccentricy: 0.0017549

Argument of periapsis: 223.1288 deg

Mean anomaly: 136.8386 deg

Mean motion: 12.44882795 rev/day

Mean motion (dot): -0.00000009 rev/day2

B* drag term: 0.000044901614 1/REarth

Two-line elements (TLE)

Creation date: Dec. 14, 2025, 6:24 p.m.

Reference frame: TEME

Reference center: EARTH

Epoch: Dec. 14, 2025, 3:30 a.m. UTC

TLE line 0: 0 COSMOS 1852

TLE line 1: 1 18113U 87051A 25348.14624655 -.00000009 00000-0 44902-4 0 9993

TLE line 2: 2 18113 74.0053 7.8746 0017549 223.1288 136.8386 12.44882795749408

Live tracking on map

Real-time ground track for satellite COSMOS 1852.

In-orbit conjunctions

A list of the most updated potential collisions computed for object COSMOS 1852.

Target Orbit TCA Probability of collision Miss distance Type
COSMOS 794 LEO 2025-10-06 20:42:43 0.0001309878 254.0 (m) PAYLOAD

Associated space launch

Military communications satellites

COSMOS 1852 was lifted into orbit during the mission ‘Kosmos-3M | Strela-1M 321-328’, on board a Kosmos-3M space rocket.

The launch took place on June 16, 1987, 5:51 p.m. from 132/1 (132L).

For more information about the launch, click the button.

Launch to space Kosmos-3M | Strela-1M 321-328
Kosmos-3M | Strela-1M 321-328

Agency: N/A

Status: Launch Successful

Launch date: June 16, 1987, 5:51 p.m. UTC

Rocket: Kosmos-3M

Launch pad: 132/1 (132L)

Location: Plesetsk Cosmodrome, Russian Federation

...

Latest news about this satellite

There are no fresh news available about this satellite. Check back as we update our databases every day.


Newsletter sign-up

Weekly statistics, charts and insights to help you stay on top of the space industry.